• Join FlightAware (Why Join?)
  • Login
  • US Flag 
07:25PM EDT


 

Airport Tracker/Info


-or-


 

Live Flight TrackerFlight Track Log ✈ ASH3770 ✈ 07-Jul-2013 ✈ KORF - KIAD

Flight Track Log - Related Links

Times and Time Zones

All times are in EDT time to prevent confusion due to time zone crossing. See the ASH3770 flight status page for this flight to view local times or setup timezone preferences in your user account.

Time Position Orientation Groundspeed Altitude Reporting Facility
EDT Latitude Longitude Course Direction KTS MPH feet Rate Location/Type
06:44PM 36.8867 -76.2125 242° Southwest 154 177 500  Level Washington Center
06:46PM 36.8614 -76.2719 242° Southwest 190 219 3,300 2,100 Climbing Washington Center
06:47PM 36.8944 -76.3400 270° West 172 198 5,400 2,160 Climbing Washington Center
06:48PM 36.9375 -76.4183 305° West 209 241 7,800 2,520 Climbing Washington Center
06:49PM 36.9850 -76.4967 307° West 261 300 10,400 2,040 Climbing Washington Center
06:50PM 37.0322 -76.5883 303° West 288 331 11,900 1,680 Climbing Washington Center
06:51PM 37.0878 -76.6853 306° West 320 368 13,900 1,020 Climbing Washington Center
06:52PM 37.1494 -76.7906 306° West 352 405 14,000  Climbing Washington Center
06:53PM 37.2067 -76.8983 304° West 375 432 14,000  Level Washington Center
06:54PM 37.2722 -77.0169 305° West 408 470 14,000  Level Washington Center
06:55PM 37.3478 -77.1383 308° West 413 475 14,000  Level Washington Center
06:56PM 37.4492 -77.1903 338° Northwest 386 444 14,000  Level Washington Center
06:57PM 37.5431 -77.2053 353° North 354 407 14,000  Level Washington Center
06:58PM 37.6283 -77.2175 354° North 331 381 14,000 -180 Level Washington Center
06:59PM 37.7178 -77.2325 352° North 326 375 13,700 -540 Descending Washington Center
07:00PM 37.8072 -77.2503 351° North 326 375 13,000 -660 Descending Washington Center
07:01PM 37.8925 -77.2653 352° North 321 369 12,400 -1,140 Descending Washington Center
07:02PM 37.9800 -77.2831 351° North 315 362 10,800 -1,200 Descending Washington Center
07:03PM 38.0567 -77.3006 350° North 315 362 10,000 -420 Descending Washington Center
07:04PM 38.1378 -77.3156 352° North 310 357 10,000  Level Washington Center
07:05PM 38.2253 -77.3336 351° North 310 357 10,000  Level Washington Center
07:06PM 38.3064 -77.3486 352° North 310 357 10,000 -1,080 Level Washington Center
07:07PM 38.3875 -77.3558 356° North 305 351 7,900 -2,220 Descending Washington Center
07:08PM 38.4644 -77.3708 351° North 293 337 5,700 -1,980 Descending Washington Center
07:09PM 38.5328 -77.4150 333° Northwest 271 312 4,000 -1,380 Descending Washington Center
07:10PM 38.6011 -77.4433 342° North 265 305 3,000 -660 Descending Washington Center
07:10PM 38.6667 -77.4333 North 263 303 3,000  Level Potomac TRACON
07:11PM 38.7167 -77.4333 360° North 230 265 3,000 -480 Level Potomac TRACON
07:12PM 38.7667 -77.4333 360° North 189 217 2,200 -540 Descending Potomac TRACON
07:13PM 38.8167 -77.4333 360° North 171 197 2,000 -360 Descending Potomac TRACON
07:14PM 38.8667 -77.4333 360° North 152 175 1,500 -600 Descending Potomac TRACON
07:15PM 38.9000 -77.4333 360° North 141 162 700 -780 Descending Potomac TRACON